This is the latest recevied weather packets stored in our database for station/object W8RD. If no packets are shown the sender has not sent any weather packets the latest 10 day(s).
| Time | Temp. | Humidity | Pressure | Rain* | Wind** | Luminosity | Snow |
|---|---|---|---|---|---|---|---|
| 1777907101 | 25° C | 57% | 1018.6 hPa | 0 mm | - | 39 W/m² | - |
| 1777906496 | 25° C | 56% | 1018.3 hPa | 0 mm | - | 55 W/m² | - |
| 1777905895 | 24.44° C | 58% | 1018.4 hPa | 0 mm | - | 35 W/m² | - |
| 1777905294 | 25° C | 58% | 1018.2 hPa | 0 mm | - | 38 W/m² | - |
| 1777904695 | 24.44° C | 60% | 1018.4 hPa | 0 mm | - | 31 W/m² | - |
| 1777904094 | 23.89° C | 62% | 1018.4 hPa | 0 mm | - | 32 W/m² | - |
| 1777903493 | 23.89° C | 62% | 1018.2 hPa | 0 mm | - | 29 W/m² | - |
| 1777902891 | 23.33° C | 63% | 1018.1 hPa | 0 mm | - | 28 W/m² | - |
| 1777902291 | 23.33° C | 64% | 1018.1 hPa | 0 mm | - | 48 W/m² | - |
| 1777901687 | 22.78° C | 65% | 1018.2 hPa | 0 mm | - | 26 W/m² | - |
| 1777901082 | 22.22° C | 66% | 1018.1 hPa | 0 mm | - | 26 W/m² | - |
| 1777900476 | 22.22° C | 66% | 1017.9 hPa | 0 mm | - | 25 W/m² | - |
| 1777899875 | 21.67° C | 68% | 1017.7 hPa | 0 mm | - | 25 W/m² | - |
| 1777899275 | 21.67° C | 69% | 1017.8 hPa | 0 mm | - | 24 W/m² | - |
| 1777898676 | 20.56° C | 70% | 1017.6 hPa | 0 mm | - | 23 W/m² | - |
| 1777898071 | 20.56° C | 72% | 1017.9 hPa | 0 mm | - | 25 W/m² | - |
| 1777897468 | 20° C | 73% | 1017.8 hPa | 0 mm | - | 22 W/m² | - |
| 1777896867 | 19.44° C | 74% | 1017.6 hPa | 0 mm | - | 34 W/m² | - |
| 1777896261 | 19.44° C | 75% | 1017.4 hPa | 0 mm | - | 20 W/m² | - |
| 1777895657 | 18.89° C | 76% | 1017.6 hPa | 0 mm | - | 19 W/m² | - |
| 1777895052 | 18.89° C | 77% | 1017.5 hPa | 0 mm | - | 17 W/m² | - |
| 1777894451 | 18.33° C | 78% | 1017.4 hPa | 0 mm | - | 17 W/m² | - |
| 1777893851 | 17.78° C | 80% | 1017.6 hPa | 0 mm | - | 18 W/m² | - |
| 1777893250 | 17.78° C | 80% | 1017.3 hPa | 0 mm | - | 9 W/m² | - |
| 1777892649 | 17.78° C | 79% | 1017.2 hPa | 0 mm | - | 6 W/m² | - |
* Rain latest hour (hover to see other rain measurements)
** Current wind speed in m/s (hover to see current wind gust speed)